Location: Prairie View Elementary School
(39.8322°N, 99.5698°W)
Time: 12:57:12
(UTC+00:00)

Cosmos 1992 Rocket - Pass Details

Date: 08 December 2019
Orbit: 758 x 766 km, 74.0° (Epoch: 18 January)

Event Time Altitude Azimuth Distance (km) Brightness Sun altitude
Rises 00:45:33 0° 340° (NNW) 3,231 7.3 -17.2°
Reaches altitude 10° 00:47:56 10° 340° (NNW) 2,303 6.5 -17.6°
Maximum altitude 00:53:10 86° 252° (WSW) 771 4.0 -18.6°
Drops below altitude 10° 00:58:23 10° 165° (SSE) 2,293 6.4 -19.6°
Sets 01:00:44 0° 164° (SSE) 3,216 7.2 -20.0°
